FW3809 Weather Reports


Display with metric or nautical units.
time (UTC)temp
F
wind
direction
speed
MPH
gust
MPH
rain 1hr
in
rain 24hr
in
rain mn
in
humidity
%
barometer
mb
20260505010325 76 130 7.0 17.0 0.00 0.00 0.00 79 1010.1
20260505005822 76 164 7.0 17.0 0.00 0.00 0.00 79 1010.0
20260505005319 76 156 6.0 17.0 0.00 0.00 0.00 78 1010.0
20260505004817 76 195 7.0 17.0 0.00 0.00 0.00 78 1010.0
20260505004249 76 179 7.0 14.0 0.00 0.00 0.00 78 1009.8
20260505003746 76 183 8.0 18.0 0.00 0.00 0.00 78 1009.9
20260505003223 77 157 8.0 18.0 0.00 0.00 0.00 77 1009.9
20260505002716 77 97 7.0 14.0 0.00 0.00 0.00 77 1010.0
20260505002149 77 157 6.0 14.0 0.00 0.00 0.00 76 1009.9
20260505001646 78 163 5.0 12.0 0.00 0.00 0.00 76 1009.9
20260505001128 78 171 6.0 12.0 0.00 0.00 0.00 76 1010.0
20260505000622 78 186 6.0 12.0 0.00 0.00 0.00 76 1009.9
20260505000345 78 131 5.0 14.0 0.00 0.00 0.00 76 1009.9
20260504235547 78 197 5.0 14.0 0.00 0.00 0.00 76 1010.1
20260504235045 78 142 6.0 16.0 0.00 0.00 0.00 76 1010.0
20260504234517 78 160 7.0 16.0 0.00 0.00 0.00 75 1010.2
20260504234015 78 165 7.0 15.0 0.00 0.00 0.00 75 1010.3
20260504233511 78 163 7.0 15.0 0.00 0.00 0.00 75 1010.4
20260504233011 78 151 7.0 15.0 0.00 0.00 0.00 75 1010.2
20260504232441 78 166 8.0 16.0 0.00 0.00 0.00 74 1010.3
20260504231942 78 183 7.0 14.0 0.00 0.00 0.00 74 1010.3
20260504231416 79 148 7.0 17.0 0.00 0.00 0.00 73 1010.3
20260504230908 79 168 6.0 17.0 0.00 0.00 0.00 73 1010.4
20260504230615 79 153 7.0 18.0 0.00 0.00 0.00 74 1010.5
20260504225842 79 148 8.0 18.0 0.00 0.00 0.00 74 1010.5
20260504225317 79 182 7.0 17.0 0.00 0.00 0.00 74 1010.5
20260504225024 79 122 8.0 17.0 0.00 0.00 0.00 74 1010.7
20260504224226 79 120 8.0 16.0 0.00 0.00 0.00 73 1010.6
20260504223715 79 125 9.0 16.0 0.00 0.00 0.00 73 1010.7
20260504223210 79 177 9.0 19.0 0.00 0.00 0.00 72 1010.6
20260504222707 79 172 8.0 19.0 0.00 0.00 0.00 72 1010.7
20260504222210 80 132 7.0 15.0 0.00 0.00 0.00 71 1010.9
20260504221708 80 159 6.0 14.0 0.00 0.00 0.00 71 1010.9
20260504221152 80 190 6.0 14.0 0.00 0.00 0.00 70 1010.9
20260504220651 80 191 7.0 17.0 0.00 0.00 0.00 71 1011.0
20260504220136 80 131 7.0 17.0 0.00 0.00 0.00 70 1011.0
20260504215625 80 145 7.0 16.0 0.00 0.00 0.00 69 1011.1
20260504215124 80 109 8.0 16.0 0.00 0.00 0.00 69 1011.1
20260504214624 80 124 8.0 14.0 0.00 0.00 0.00 68 1011.0
20260504214125 81 195 7.0 15.0 0.00 0.00 0.00 68 1011.1
20260504213607 81 170 7.0 14.0 0.00 0.00 0.00 67 1011.3
20260504213103 81 231 6.0 14.0 0.00 0.00 0.00 67 1011.2
20260504212620 81 216 7.0 12.0 0.00 0.00 0.00 66 1011.2
20260504212042 82 158 7.0 13.0 0.00 0.00 0.00 66 1011.3
20260504211514 82 145 6.0 13.0 0.00 0.00 0.00 66 1011.4
20260504210948 82 217 5.0 13.0 0.00 0.00 0.00 65 1011.4
20260504210700 82 125 5.0 12.0 0.00 0.00 0.00 64 1011.4
20260504205923 82 156 5.0 12.0 0.00 0.00 0.00 63 1011.6
20260504205358 82 55 5.0 10.0 0.00 0.00 0.00 65 1011.6
20260504204831 82 145 5.0 14.0 0.00 0.00 0.00 64 1011.7
20260504204306 82 204 6.0 14.0 0.00 0.00 0.00 64 1011.8
20260504203738 82 108 5.0 13.0 0.00 0.00 0.00 64 1011.7
20260504203235 83 193 4.0 13.0 0.00 0.00 0.00 63 1011.8
20260504202738 82 191 5.0 11.0 0.00 0.00 0.00 64 1011.9
20260504202229 82 185 6.0 15.0 0.00 0.00 0.00 63 1011.9
20260504201705 82 195 5.0 15.0 0.00 0.00 0.00 64 1012.1
20260504201201 82 187 6.0 12.0 0.00 0.00 0.00 64 1012.2
20260504200657 82 235 6.0 12.0 0.00 0.00 0.00 63 1012.4
20260504200132 83 219 4.0 9.0 0.00 0.00 0.00 62 1012.3
20260504195604 83 201 3.0 8.0 0.00 0.00 0.00 62 1012.4
20260504195101 83 179 4.0 13.0 0.00 0.00 0.00 64 1012.5
20260504194535 83 205 6.0 13.0 0.00 0.00 0.00 62 1012.6
20260504194008 83 116 6.0 12.0 0.00 0.00 0.00 62 1012.7
20260504193506 83 246 6.0 14.0 0.00 0.00 0.00 62 1012.7
20260504192939 83 212 7.0 14.0 0.00 0.00 0.00 63 1012.8
20260504192436 82 139 7.0 16.0 0.00 0.00 0.00 62 1012.9
20260504191908 82 203 7.0 16.0 0.00 0.00 0.00 62 1012.9
20260504191405 82 210 6.0 14.0 0.00 0.00 0.00 62 1013.0
20260504190838 82 195 5.0 13.0 0.00 0.00 0.00 62 1013.1
20260504190334 82 158 5.0 13.0 0.00 0.00 0.00 62 1013.2
20260504185832 82 185 5.0 10.0 0.00 0.00 0.00 61 1013.2
20260504185305 82 204 5.0 10.0 0.00 0.00 0.00 62 1013.2
20260504184802 81 133 6.0 12.0 0.00 0.00 0.00 63 1013.3
20260504184235 82 212 6.0 12.0 0.00 0.00 0.00 62 1013.4
20260504183710 83 197 6.0 18.0 0.00 0.00 0.00 62 1013.3
20260504183148 81 196 5.0 13.0 0.00 0.00 0.00 63 1013.1
20260504183142 82 177 6.0 18.0 0.00 0.00 0.00 63 1013.2
20260504182139 80 185 8.0 17.0 0.00 0.00 0.00 64 1013.5
20260504182134 80 131 7.0 17.0 0.00 0.00 0.00 64 1013.3
20260504181104 81 197 7.0 15.0 0.00 0.00 0.00 63 1013.6
20260504180831 80 118 7.0 14.0 0.00 0.00 0.00 63 1013.7
20260504180330 80 247 8.0 14.0 0.00 0.00 0.00 64 1013.9
20260504175531 80 220 8.0 14.0 0.00 0.00 0.00 63 1013.9
20260504175026 80 192 7.0 15.0 0.00 0.00 0.00 63 1013.8
20260504174523 80 177 7.0 15.0 0.00 0.00 0.00 63 1014.1
20260504173958 79 215 7.0 16.0 0.00 0.00 0.00 63 1014.1
20260504173430 80 189 7.0 16.0 0.00 0.00 0.00 64 1013.9
20260504173158 80 108 6.0 14.0 0.00 0.00 0.00 64 1014.1
20260504172630 80 204 6.0 12.0 0.00 0.00 0.00 64 1014.3
20260504171858 80 214 7.0 16.0 0.00 0.00 0.00 64 1014.5
20260504171356 80 187 6.0 16.0 0.00 0.00 0.00 64 1014.4
20260504170828 80 212 6.0 14.0 0.00 0.00 0.00 65 1014.5
20260504170327 79 121 6.0 14.0 0.00 0.00 0.00 66 1014.6
20260504160306 76 218 6.0 13.0 0.00 0.00 0.00 70 1015.4
20260504150829 74 138 7.0 12.0 0.00 0.00 0.00 73 1015.5
20260504150559 74 200 7.0 14.0 0.00 0.00 0.00 72 1015.3
20260504141016 73 131 2.0 5.0 0.00 0.00 0.00 72 1015.5
20260504140450 72 190 2.0 6.0 0.00 0.00 0.00 71 1015.4
20260504130634 68 152 2.0 5.0 0.00 0.00 0.00 77 1015.6
20260504130110 67 160 2.0 5.0 0.00 0.00 0.00 78 1015.5
20260504110537 62 172 0.0 2.0 0.00 0.00 0.00 83 1015.0
20260504100158 63 173 0.0 2.0 0.00 0.00 0.00 80 1015.3
20260504081850 64 177 1.0 3.0 0.00 0.00 0.00 78 1015.9
20260504081554 64 177 1.0 3.0 0.00 0.00 0.00 77 1016.0
20260504080818 64 177 1.0 4.0 0.00 0.00 0.00 77 1016.0
20260504080316 64 177 1.0 4.0 0.00 0.00 0.00 77 1016.2
20260504060214 66 175 1.0 4.0 0.00 0.00 0.00 71 1017.5
20260504050456 67 161 2.0 6.0 0.00 0.00 0.00 68 1017.9
20260504050201 67 161 2.0 5.0 0.00 0.00 0.00 68 1017.8
20260504045427 67 161 1.0 5.0 0.00 0.00 0.00 68 1017.9
20260504044901 67 161 1.0 5.0 0.00 0.00 0.00 67 1018.0
20260504044334 67 161 2.0 5.0 0.00 0.00 0.00 67 1017.9
20260504043832 67 161 2.0 4.0 0.00 0.00 0.00 67 1018.0
20260504043305 67 161 2.0 6.0 0.00 0.00 0.00 67 1018.0
20260504042800 67 161 2.0 6.0 0.00 0.00 0.00 67 1018.0
20260504042258 68 156 1.0 5.0 0.00 0.00 0.00 67 1018.2
20260504041731 68 155 1.0 5.0 0.00 0.00 0.00 67 1018.1
20260504041221 68 155 1.0 5.0 0.00 0.00 0.00 66 1018.1
20260504040718 68 155 1.0 3.0 0.00 0.00 0.00 66 1018.0
20260504040446 68 155 1.0 5.0 0.00 0.00 0.00 66 1018.0
20260504035710 68 155 3.0 6.0 0.00 0.00 0.00 65 1018.1
20260504035213 69 155 3.0 6.0 0.00 0.00 0.00 65 1018.0
20260504034639 69 167 2.0 7.0 0.00 0.00 0.00 65 1018.1
20260504034137 69 143 2.0 7.0 0.00 0.00 0.00 65 1018.2
20260504033612 69 161 2.0 5.0 0.00 0.00 0.00 65 1018.1
20260504033314 69 161 4.0 9.0 0.00 0.00 0.00 65 1018.1
20260504032812 69 154 4.0 10.0 0.00 0.00 0.00 64 1018.1
20260504032016 69 106 4.0 10.0 0.00 0.00 0.00 64 1018.0
20260504031718 69 168 3.0 10.0 0.00 0.00 0.00 64 1018.0
20260504031219 69 144 4.0 10.0 0.00 0.00 0.00 64 1018.0
20260504030419 69 142 4.0 9.0 0.00 0.00 0.00 63 1017.8
20260504025853 70 149 4.0 9.0 0.00 0.00 0.00 63 1017.8
20260504025350 70 137 3.0 9.0 0.00 0.00 0.00 63 1017.8
20260504024824 70 141 4.0 9.0 0.00 0.00 0.00 63 1017.8
20260504024256 70 144 4.0 10.0 0.00 0.00 0.00 63 1017.9
20260504024024 70 134 4.0 10.0 0.00 0.00 0.00 62 1017.9
20260504023228 70 162 4.0 9.0 0.00 0.00 0.00 62 1017.9
20260504022931 71 160 5.0 10.0 0.00 0.00 0.00 62 1017.9
20260504022157 71 133 5.0 10.0 0.00 0.00 0.00 62 1017.8
20260504021631 71 174 5.0 10.0 0.00 0.00 0.00 61 1017.8
20260504021336 71 147 5.0 10.0 0.00 0.00 0.00 60 1017.7
20260504020602 71 120 5.0 12.0 0.00 0.00 0.00 60 1017.7
20260504020035 71 147 6.0 12.0 0.00 0.00 0.00 60 1017.7
20260504015511 72 150 5.0 12.0 0.00 0.00 0.00 59 1017.7
20260504015012 72 73 5.0 12.0 0.00 0.00 0.00 59 1017.7
20260504014446 72 129 5.0 11.0 0.00 0.00 0.00 58 1017.7
20260504013919 72 177 5.0 12.0 0.00 0.00 0.00 58 1017.7
20260504013355 72 126 6.0 12.0 0.00 0.00 0.00 57 1017.6
20260504013336 73 133 6.0 11.0 0.00 0.00 0.00 56 1017.5
20260504012327 73 156 5.0 11.0 0.00 0.00 0.00 56 1017.5
20260504011827 73 125 4.0 10.0 0.00 0.00 0.00 56 1017.4
20260504011324 73 162 5.0 12.0 0.00 0.00 0.00 55 1017.4